Regional Weather Roundup
Issued by NWS Goodland, KS

Home | Current Version | Previous Version | Text Only | Print | Product List | Glossary Off
Versions: 1 2 3 4 5 6 7 8 9 10 11 12 13 14 15 16 17 18 19 20 21 22 23 24 25 26 27 28 29 30 31 32 33 34 35 36 37 38 39 40 41 42 43 44 45 46 47 48 49 50

000
ASUS43 KGLD 271759
RWRGLD

GOODLAND FORECAST AREA HOURLY WEATHER ROUNDUP
NATIONAL WEATHER SERVICE GOODLAND KS
1200 PM MDT SAT AUG 27 2016

...OFFICIAL OBSERVATIONS...

CITY           SKY/WX    TMP DP  RH WIND       PRES   REMARKS
GOODLAND KS    MOSUNNY   69  60  73 VRB7      30.08F
HILL CITY KS   SUNNY     79  64  60 SE7       30.04F
IMPERIAL NEB   CLOUDY    72  61  68 S10       30.06F
MCCOOK NEB     SUNNY     78  62  57 VRB5      30.04F
AKRON CO       SUNNY     77  45  32 VRB5      30.11S
BURLINGTON CO  SUNNY     73  57  57 E9        30.10F
LIMON CO       TSTM      62  48  60 N13G35    30.14R
$$

...UNOFFICIAL OBSERVATIONS...

CITY           SKY/WX    TMP DP  RH WIND       PRES   REMARKS
LENORA KS        N/A     75  32  20 MISG        N/A
NORTON KS      SUNNY     79  59  50 SE8       30.04S
SHARON SPRINGS   N/A     72  65  78 NE7         N/A
TRENTON NEB      N/A     76  32  20 MISG        N/A
KIT CARSON CO    N/A     76  58  53 MISG        N/A
YUMA CO          N/A     65  62  91 CALM        N/A
$$




USA.gov is the U.S. government's official web portal to all federal, state and local government web resources and services.